SCP
0 0 0 1 1 0 0 0 0 0 0 0 0 0 0 0 0 0 0 0 0 0 0 1 1 1 1 1 1 1 1 1 1 1 1 0 0 0 0 0 0 0 0 0 0 0 0 0 0
0 1 1 1 1 0 0 0 0 0 0 0 0 0 0 0 0 0 0 0 0 0 1 1 1 1 1 1 1 1 1 1 0 1 0 0 0 0 0 0 0 0 0 0 0 0 0 0 0
0 1 1 1 0 0 0 0 0 0 0 0 0 0 0 0 0 0 0 0 0 0 1 1 1 1 1 1 1 1 1 1 0 0 0 0 0 0 0 0 0 0 0 0 0 0 0 0 0
0 0 1 0 0 0 0 0 0 0 0 0 0 0 0 0 0 0 0 0 0 1 1 1 1 1 1 1 1 1 1 0 0 0 0 0 0 0 0 0 0 0 0 0 0 0 0 0 0
0 0 0 0 0 0 0 0 0 0 0 0 0 1 1 0 0 0 0 0 0 1 1 1 1 1 1 1 1 1 1 0 0 0 0 0 0 0 0 0 0 0 0 0 0 0 0 0 0
0 0 0 0 0 0 0 0 0 0 0 0 0 1 1 0 0 0 0 0 1 1 1 1 1 1 1 1 1 1 1 0 0 0 0 0 0 0 0 0 0 0 0 0 0 0 0 0 1
0 0 0 0 0 0 0 0 0 0 0 0 0 0 0 0 0 0 0 1 1 1 1 1 1 1 1 1 1 1 0 0 0 0 0 0 0 0 0 0 0 0 0 0 0 0 0 0 0
0 0 0 0 0 0 0 0 0 0 0 0 0 0 0 0 1 1 1 1 1 1 1 1 1 1 1 1 1 0 0 0 0 0 0 0 0 0 0 0 0 0 0 0 0 0 0 0 0
0 0 0 0 0 0 0 0 0 0 0 0 0 0 0 0 1 1 1 0 1 1 1 1 1 1 1 1 1 0 0 0 0 0 0 0 0 0 0 0 0 0 0 0 0 0 0 0 0
0 0 0 0 0 0 0 0 0 0 0 0 0 0 0 1 1 1 1 1 0 0 1 1 1 1 1 1 1 0 0 0 0 0 0 0 0 0 0 0 0 0 0 0 0 0 0 0 0
0 0 0 0 0 0 0 0 0 0 0 0 0 0 0 0 1 1 1 1 1 0 0 1 1 1 1 1 1 0 0 0 0 0 0 0 0 0 0 0 0 0 0 0 0 0 0 0 0
0 0 0 0 0 0 0 0 0 0 0 0 0 0 0 0 0 1 1 1 1 0 0 0 1 1 1 1 1 0 0 0 0 0 0 0 0 0 0 0 0 0 0 0 0 0 0 0 0
0 0 0 0 0 0 0 0 0 0 0 0 0 0 0 0 0 0 1 1 1 1 0 0 1 1 1 1 1 0 0 0 0 0 0 0 0 0 0 0 0 0 0 0 0 0 0 0 0
0 0 0 0 0 0 0 0 0 0 0 0 0 0 0 0 0 0 1 1 1 1 0 0 0 1 1 1 1 0 0 0 0 0 0 0 0 0 0 0 0 0 0 0 0 0 0 0 0
0 0 0 0 0 0 0 0 0 0 0 0 0 0 1 1 0 0 0 1 1 1 1 0 0 0 1 1 0 0 0 0 0 0 0 0 0 0 0 0 0 0 0 0 0 0 0 0 0
0 0 0 0 0 0 0 0 0 0 0 0 0 1 1 1 1 0 0 0 1 1 1 1 0 0 0 1 0 0 0 0 0 0 0 0 0 0 0 0 0 0 0 0 0 0 0 0 0
0 0 0 0 0 0 0 0 0 0 0 0 1 1 1 1 1 0 0 0 0 1 1 1 0 0 0 0 0 0 0 0 0 0 0 0 0 0 0 0 0 0 0 0 0 0 0 0 0
0 0 0 0 0 0 0 0 0 0 0 0 1 1 1 1 0 0 0 0 0 1 1 1 0 0 0 0 0 0 0 0 0 0 0 0 0 0 0 0 0 0 0 0 0 0 0 0 0
0 0 0 0 0 0 0 0 0 0 0 0 0 1 1 0 0 0 0 0 0 1 1 1 1 0 0 0 0 0 0 0 0 0 0 0 0 0 0 0 0 0 0 0 0 0 0 0 0
0 0 0 0 0 0 0 0 0 0 0 0 0 1 1 0 0 0 0 0 0 0 1 1 1 1 0 1 0 0 0 0 0 0 0 0 0 0 0 0 0 0 0 0 0 0 0 0 0
0 0 0 0 0 0 0 0 0 0 0 0 0 0 0 0 0 0 0 0 0 0 1 1 1 1 1 1 0 0 0 0 0 0 0 0 0 0 0 0 0 0 0 0 0 0 0 0 0
0 0 0 0 0 0 0 0 0 0 0 0 0 0 0 0 0 0 0 0 0 0 0 1 1 1 1 1 0 0 0 0 0 0 0 0 0 0 0 0 0 0 0 0 0 0 0 0 0
0 0 0 0 0 0 0 0 0 0 0 0 0 0 0 0 0 0 0 0 0 0 0 1 1 1 1 1 0 0 0 0 0 0 0 0 0 0 0 0 0 0 0 0 0 0 0 0 0
0 0 0 0 0 0 0 0 0 0 0 0 0 0 0 0 0 0 0 0 0 0 0 1 1 1 1 0 0 0 0 0 0 0 0 0 0 0 0 0 0 0 0 0 0 0 0 0 0
0 0 0 0 0 0 0 0 0 0 0 0 0 0 0 0 0 0 0 0 0 0 0 0 0 0 0 0 0 0 0 0 0 0 0 0 0 0 0 0 0 0 0 0 0 0 0 0 0
0 0 0 0 0 0 0 0 0 0 0 0 0 0 0 0 0 0 0 0 0 0 0 0 0 0 0 0 0 0 0 0 0 0 0 0 0 0 0 0 0 0 0 0 0 0 0 0 0
0 0 0 0 0 0 0 0 0 0 0 0 0 0 0 0 0 0 0 0 0 0 0 0 0 0 0 1 1 1 0 0 0 0 0 0 0 0 0 0 0 0 0 0 0 0 0 0 0
0 0 0 0 0 0 0 0 0 0 0 0 0 0 0 0 0 0 0 0 0 0 0 0 0 0 0 1 1 1 1 0 0 0 0 0 0 0 0 0 0 0 0 0 0 0 0 0 0
0 0 0 0 0 0 0 0 0 0 0 0 0 0 0 0 0 0 0 0 0 0 0 0 0 0 0 0 0 0 0 0 0 0 0 0 0 0 0 0 0 0 0 0 0 0 0 0 0
0 0 0 0 0 0 0 0 0 0 0 0 0 0 0 0 0 0 0 0 0 0 0 0 0 0 0 0 0 0 0 0 0 0 0 0 0 0 0 0 0 0 0 0 0 0 0 0 0
Wind_Speed
11 5 2 4 6 5 1 1 1 1 2 2 2 3 5 4 2 2 1 2 3 2 1 1 5 7 8 9 9 9 10 10 10 11 11 11 11 11 11 11 11 11 11 12 12 12 11 11 11
4 3 5 5 5 2 2 2 1 1 1 2 4 4 4 3 3 2 2 3 2 2 2 2 6 7 8 9 9 9 9 10 10 10 11 11 10 11 11 11 11 10 11 11 11 11 11 11 10
3 3 5 5 4 4 4 2 2 1 3 2 3 4 3 2 2 1 1 1 2 3 3 3 7 8 8 9 9 9 9 10 10 10 10 10 11 11 11 11 11 11 10 10 10 10 10 10 9
3 5 6 5 3 2 2 2 2 3 3 4 3 3 2 3 2 1 1 3 4 3 3 3 7 8 8 8 9 9 9 9 9 9 9 10 11 11 10 11 11 10 10 10 10 9 9 9 9
4 5 5 2 2 1 0 1 2 2 2 2 2 3 1 3 3 3 3 4 4 4 3 3 7 8 8 8 8 9 9 9 9 9 9 10 10 10 10 11 10 10 10 10 10 9 9 9 8
5 5 4 4 3 1 0 1 2 3 2 2 3 2 1 3 4 4 4 4 4 4 4 4 7 8 8 8 8 8 9 9 9 9 9 10 10 10 10 10 10 9 9 9 9 9 9 8 8
5 4 3 4 4 2 1 1 2 3 2 1 1 3 1 2 3 3 4 4 4 4 4 3 4 5 6 7 8 8 9 9 9 9 9 9 9 9 9 9 9 9 9 9 9 9 8 8 8
4 5 3 2 4 3 1 2 2 2 2 1 2 3 2 1 2 3 4 4 4 4 3 3 3 3 3 4 7 8 8 8 9 9 9 8 8 8 9 8 9 8 8 8 8 8 8 8 8
3 5 3 3 4 2 1 2 2 2 4 3 2 1 1 3 3 4 3 3 3 3 3 3 3 3 3 3 5 6 7 8 8 7 8 7 4 4 5 7 8 8 8 8 8 8 8 8 8
5 4 3 1 2 3 2 2 2 3 3 2 2 3 3 4 4 4 3 2 1 1 1 2 2 2 3 3 3 3 3 4 4 4 4 3 3 3 5 6 8 8 8 7 8 8 8 6 4
5 4 2 2 2 4 3 3 2 3 1 1 2 2 3 3 3 3 2 1 0 0 1 1 1 2 2 2 2 2 2 2 3 4 4 3 3 2 3 2 3 4 5 4 5 5 4 4 3
5 3 3 2 2 3 3 3 3 2 1 1 3 4 4 4 3 2 1 1 1 1 1 1 1 2 2 2 2 2 2 2 2 3 4 3 2 2 2 2 2 2 2 3 3 3 4 4 4
4 3 3 4 6 5 5 3 2 1 2 2 4 4 3 3 2 1 1 1 1 0 0 0 1 2 2 2 2 2 2 2 2 2 2 3 2 2 2 2 2 2 2 2 2 3 3 4 4
4 5 4 4 4 3 4 2 1 2 1 2 3 2 1 2 1 1 1 0 1 1 1 0 1 1 2 2 2 2 1 1 2 2 2 3 2 2 2 2 2 3 2 2 2 2 2 2 3
4 5 4 3 2 1 2 3 2 2 1 1 1 0 0 0 0 0 1 1 2 2 1 1 2 2 2 2 2 2 2 2 2 2 2 3 3 2 2 2 2 2 2 2 2 3 2 3 3
3 4 2 3 2 1 2 3 2 1 3 1 1 2 1 2 1 1 2 2 2 2 2 2 2 2 3 2 2 2 1 2 2 1 2 3 3 2 2 2 2 2 2 2 2 3 2 3 3
3 2 1 1 2 1 2 3 3 0 2 2 2 3 2 3 3 3 2 2 2 2 2 3 2 3 3 3 2 2 1 2 1 1 2 2 2 2 2 1 2 2 2 2 2 2 2 3 3
2 2 1 0 2 2 1 3 4 1 1 2 3 3 3 3 4 3 2 1 1 0 1 2 2 2 2 2 2 1 1 1 1 1 1 2 2 2 1 1 2 2 2 2 2 2 2 2 3
3 3 2 1 1 2 0 4 5 2 1 3 4 4 4 5 4 2 2 1 1 1 1 1 2 2 2 2 2 2 1 1 0 0 1 1 1 1 1 1 1 2 2 2 2 2 2 2 3
5 4 1 1 2 1 2 5 5 2 3 4 5 5 5 4 3 3 1 0 1 1 1 2 2 2 3 2 2 2 2 2 2 1 0 0 1 1 1 1 1 1 1 2 2 2 1 2 2
4 2 2 1 2 2 3 6 3 2 1 2 3 4 3 5 5 4 2 2 1 2 2 2 2 2 2 3 2 1 1 0 0 0 1 1 1 1 1 1 1 1 1 1 1 1 1 1 1
1 0 2 2 2 2 2 3 6 2 3 3 4 4 5 5 4 3 2 2 3 3 2 2 2 2 2 3 3 4 3 2 2 1 1 1 0 0 1 0 0 0 1 1 1 1 1 0 1
1 1 2 2 2 2 2 1 8 2 4 5 4 5 6 5 4 3 4 4 3 2 2 2 1 1 2 3 3 3 2 2 1 1 1 1 1 1 1 0 0 0 0 1 1 1 1 1 1
2 2 3 3 3 2 1 2 7 3 5 4 3 3 4 4 3 3 3 1 1 1 1 1 1 2 2 3 3 3 3 2 1 1 1 1 1 1 1 1 1 1 1 1 1 1 1 1 1
3 4 4 5 4 4 1 2 8 5 4 3 3 4 4 3 2 2 2 2 2 2 2 2 2 2 2 2 3 4 4 3 3 3 2 1 1 1 2 1 1 1 1 1 1 1 1 1 1
1 3 4 3 3 4 1 5 7 4 3 3 4 4 4 3 3 3 3 3 3 3 3 3 3 3 2 3 3 2 3 2 2 2 2 2 2 2 2 1 1 2 1 1 1 1 1 1 2
2 2 2 5 2 2 5 6 9 3 3 3 3 4 4 4 3 3 3 2 2 3 3 3 4 3 3 3 2 2 2 2 2 2 2 2 2 2 1 2 2 2 2 2 1 1 2 2 2
1 4 3 4 2 3 6 4 5 5 4 3 3 4 4 4 3 3 3 3 3 3 2 2 3 4 3 3 3 2 3 3 3 2 2 2 2 2 1 2 2 2 2 2 2 2 2 2 3
2 2 3 4 3 4 3 7 6 6 4 3 5 4 4 4 4 4 3 3 2 2 1 1 2 2 2 2 2 2 2 2 2 2 2 2 2 2 2 2 2 2 2 2 2 2 2 3 3
2 3 5 4 3 3 2 9 4 5 4 4 5 5 4 4 4 4 4 3 2 2 2 2 2 2 3 2 2 2 2 2 2 2 2 2 2 2 2 2 2 2 2 2 3 3 3 3 4
Wind_Direction
332 333 38 59 59 59 134 234 144 63 49 30 39 76 103 104 125 148 9 44 45 85 68 65 69 78 77 73 72 69 70 71 71 73 72 71 69 69 69 69 68 67 67 66 66 68 68 69 69
326 351 51 60 94 126 231 216 150 92 107 93 48 52 65 57 34 53 10 355 55 89 70 63 76 78 80 77 75 74 72 72 72 71 71 70 70 69 67 65 65 65 66 66 65 65 65 65 66
337 43 76 80 112 173 188 174 150 74 53 68 65 47 63 38 10 6 339 12 63 73 57 57 77 81 83 81 78 76 76 74 72 71 71 70 68 66 64 62 61 61 62 62 62 63 62 61 60
52 51 59 83 151 198 169 142 136 112 55 47 91 71 46 33 342 324 54 80 77 60 53 66 79 83 85 83 81 79 78 76 72 69 69 70 69 67 63 60 59 58 57 57 56 56 57 56 56
56 77 78 87 191 198 106 102 117 88 68 36 89 104 44 7 23 63 79 83 86 64 50 67 77 78 80 82 80 79 79 77 73 71 69 69 67 66 65 61 57 54 52 52 51 51 51 51 50
59 72 108 178 194 186 82 20 100 85 87 53 73 104 83 22 34 51 74 85 87 84 64 66 70 72 74 75 75 74 74 73 73 72 70 69 67 65 63 60 57 54 51 49 47 44 43 44 46
99 98 138 161 164 187 170 63 94 107 86 66 94 111 58 13 19 55 73 83 77 77 73 66 72 70 67 69 68 69 69 67 67 66 64 62 62 61 58 55 54 53 50 47 45 41 37 36 40
108 105 110 148 156 185 122 76 77 95 112 40 80 130 197 292 45 75 80 80 74 67 67 66 64 67 66 62 64 66 67 65 63 61 60 61 59 54 53 51 50 49 48 43 40 38 35 34 35
77 85 149 177 168 168 118 97 43 68 99 70 49 69 105 108 93 80 78 64 64 61 53 62 65 65 64 68 65 64 66 63 61 55 53 54 47 50 47 44 45 44 41 39 35 33 31 31 30
64 120 175 168 158 140 103 97 115 92 79 74 38 28 64 92 98 91 77 76 71 51 47 52 61 68 69 70 62 58 61 62 57 50 44 42 41 44 46 39 39 35 32 30 28 24 23 26 17
68 118 128 66 91 107 92 65 55 117 87 207 181 160 115 103 96 98 90 64 86 108 53 48 64 76 78 73 72 60 54 54 52 48 40 40 46 42 39 30 23 20 24 19 13 14 14 13 10
83 56 71 53 49 76 96 102 62 61 248 279 158 139 131 130 128 131 134 53 9 61 43 36 71 88 83 84 78 74 65 59 53 41 39 43 44 39 33 29 12 14 12 11 7 7 4 8 10
74 88 62 69 69 77 86 80 94 11 334 38 85 105 123 142 153 147 104 69 24 306 207 52 92 106 98 91 86 85 78 75 70 57 44 48 51 35 24 21 14 8 4 8 358 359 3 4 4
99 92 79 52 55 56 84 51 56 293 1 62 81 103 144 163 152 96 78 350 273 260 231 163 117 125 116 110 104 94 87 80 70 56 40 46 52 45 31 20 9 4 356 349 348 352 358 356 355
106 85 58 27 38 78 82 5 268 251 118 86 35 334 359 266 57 257 230 231 239 247 230 190 167 128 125 121 110 97 80 75 66 49 43 44 45 45 39 26 7 352 346 351 360 3 3 360 357
72 74 64 354 26 4 105 269 306 155 136 197 272 280 298 294 286 283 282 272 249 239 221 200 169 142 134 126 115 104 99 90 72 48 42 39 41 46 49 33 6 353 1 9 9 6 358 350 342
50 100 120 343 5 41 124 250 294 152 159 231 270 276 278 294 304 296 290 270 241 227 210 188 168 161 155 143 130 114 107 94 80 59 42 25 33 42 50 31 5 4 16 19 14 13 3 340 335
167 142 121 296 354 64 103 270 300 330 189 249 277 287 282 272 269 276 277 261 250 249 195 179 173 170 162 147 129 122 104 97 81 71 48 30 26 33 43 29 10 15 20 17 8 1 2 341 333
120 116 111 316 355 50 279 284 290 289 255 265 267 268 271 269 276 293 278 254 65 49 109 173 161 166 152 153 172 180 197 201 188 80 44 40 32 31 46 26 14 18 25 15 7 358 357 357 351
98 99 81 15 21 46 355 300 285 256 236 237 245 252 260 273 291 290 270 188 167 192 175 161 176 177 168 163 177 180 183 197 201 215 327 340 8 10 36 38 11 356 356 11 11 15 1 357 11
58 123 155 150 352 36 358 320 298 290 265 279 261 253 264 251 253 260 250 226 207 218 215 200 186 172 174 168 140 132 130 69 115 275 300 330 352 7 14 20 13 349 348 342 338 347 18 326 329
53 139 145 123 59 344 36 307 293 302 316 297 276 269 267 263 251 252 254 247 226 226 218 205 188 165 155 149 152 160 172 190 213 210 228 287 281 300 308 354 338 333 342 329 307 326 295 270 293
126 70 94 100 102 12 18 209 287 326 301 289 275 263 262 258 253 256 250 244 244 227 210 207 170 162 159 147 159 174 185 196 194 186 214 245 273 287 290 261 235 270 286 305 312 310 288 251 243
134 70 60 52 64 339 254 184 280 255 240 276 290 280 276 275 272 273 280 278 271 262 229 200 166 198 171 166 167 174 189 197 192 217 226 252 278 285 291 264 234 244 249 269 276 268 270 254 257
63 80 33 10 9 261 192 207 254 258 243 242 274 292 302 299 285 287 292 280 261 244 227 207 190 212 192 182 191 195 197 194 210 220 223 234 256 271 269 264 249 253 252 255 256 255 278 266 261
114 122 143 184 237 289 323 239 256 264 267 260 271 285 308 304 289 273 267 266 265 251 231 208 208 223 205 197 211 207 201 197 219 227 227 226 235 246 246 230 243 253 256 261 260 263 266 276 265
118 128 143 121 74 321 280 282 297 288 292 281 279 293 294 291 284 275 280 276 266 257 242 222 215 222 218 210 207 208 206 204 218 221 219 235 240 248 242 233 242 253 260 257 246 265 272 269 261
82 140 103 111 128 284 296 275 256 277 278 292 291 287 291 299 298 293 286 277 270 262 260 243 226 223 218 208 206 216 213 216 221 216 226 234 239 239 240 240 241 249 257 260 244 261 269 269 273
105 102 107 109 145 165 266 272 228 224 236 256 273 277 277 282 287 286 285 281 275 281 275 254 245 238 237 225 214 220 226 221 215 225 240 242 246 235 231 238 241 249 255 254 249 257 267 271 280
188 180 156 156 207 191 212 267 262 224 241 254 272 283 285 280 282 282 282 288 291 282 274 254 247 240 241 232 211 217 226 215 217 238 247 243 248 250 242 241 248 257 263 256 252 257 261 258 268